Regional Weather Roundup
Issued by NWS

Home | Current Version | Previous Version | Text Only | Print | Product List | Glossary On
Versions: 1 2 3 4 5 6 7 8 9 10 11 12 13 14 15 16 17 18 19 20 21 22 23 24 25 26 27 28 29 30 31 32 33 34 35 36 37 38 39 40 41 42 43 44 45 46 47 48 49 50
227
ASUS43 KTOP 191759
RWRKS

WEATHER ROUNDUP FOR KANSAS
NATIONAL WEATHER SERVICE GOODLAND KS
1200 PM CST SUN NOV 19 2017

NOTE:  "FAIR" INDICATES FEW OR NO CLOUDS BELOW 12,000 FEET WITH NO
SIGNIFICANT WEATHER AND/OR OBSTRUCTIONS TO VISIBILITY.

KSZ001>006-013>018-027>032-041>047-191900-
NORTHWEST KANSAS

CITY           SKY/WX    TMP DP  RH WIND       PRES   REMARKS
GOODLAND       CLOUDY    52  22  30 SW12      30.11F
6HR MIN TEMP:  22; 6HR MAX TEMP:  52;

HAYS           SUNNY     56  21  25 SW16      30.18F
HILL CITY      SUNNY     54  19  25 SW18G30   30.15F
6HR MIN TEMP:  22; 6HR MAX TEMP:  54;

RUSSELL        SUNNY     56  21  25 SW17      30.17F
6HR MIN TEMP:  21; 6HR MAX TEMP:  56;

$$

KSZ061>065-074>080-084>089-191900-
SOUTHWEST KANSAS

CITY           SKY/WX    TMP DP  RH WIND       PRES   REMARKS
DODGE CITY     SUNNY     55  15  20 SW24G35   30.19F
6HR MIN TEMP:  23; 6HR MAX TEMP:  55;

GARDEN CITY    SUNNY     50  20  30 SW14      30.16F
6HR MIN TEMP:  23; 6HR MAX TEMP:  51;

GREAT BEND     SUNNY     56  21  25 SW18G24   30.19F
LIBERAL        SUNNY     56  17  21 SW23      30.20F
$$

KSZ066>073-081>083-090>101-191900-
SOUTHEAST KANSAS

CITY           SKY/WX    TMP DP  RH WIND       PRES   REMARKS
CHANUTE        SUNNY     50  31  48 S7        30.28F
6HR MIN TEMP:  26; 6HR MAX TEMP:  50;

COFFEYVILLE    SUNNY     51  30  44 S6        30.30F
6HR MIN TEMP:  28; 6HR MAX TEMP:  51;

HUTCHINSON     SUNNY     57  21  24 SW14G23   30.22F
6HR MIN TEMP:  24; 6HR MAX TEMP:  57;

MEDICINE LODGE   N/A     55  20  25 SW15G23   30.25F
NEWTON         SUNNY     53  26  35 SW14      30.24
PARSONS        SUNNY     49  30  48 VRB5      30.30F
6HR MIN TEMP:  24; 6HR MAX TEMP:  50;

WICHITA INTL   MOSUNNY   54  25  32 S13       30.24F
6HR MIN TEMP:  24; 6HR MAX TEMP:  54;

WICHITA JABRA  SUNNY     54  25  32 SW13      30.24F
6HR MIN TEMP:  28; 6HR MAX TEMP:  54;

WICHITA MCCONL SUNNY     55  24  30 SW10      30.25F
WINFIELD       SUNNY     55  28  35 SW13      30.28F
6HR MIN TEMP:  25; 6HR MAX TEMP:  55;

$$

KSZ007>012-019>026-033>040-048>060-102>105-191900-
NORTHEAST KANSAS

CITY           SKY/WX    TMP DP  RH WIND       PRES   REMARKS
CONCORDIA      SUNNY     51  24  34 SW13      30.17F
6HR MIN TEMP:  30; 6HR MAX TEMP:  51;

EMPORIA        SUNNY     53  26  35 SW12      30.24F
6HR MIN TEMP:  25; 6HR MAX TEMP:  54;

LAWRENCE       SUNNY     47  28  47 S3        30.25F
6HR MIN TEMP:  23; 6HR MAX TEMP:  48;

MANHATTAN      SUNNY     52  25  35 SW8       30.22F
6HR MIN TEMP:  21; 6HR MAX TEMP:  52;

OLATHE IND     SUNNY     45  25  45 SW3       30.26F
6HR MIN TEMP:  26; 6HR MAX TEMP:  45; 6HR PCP: TRACE;

OLATHE EXE     SUNNY     44  23  43 VRB6      30.25F
6HR MIN TEMP:  27; 6HR MAX TEMP:  44;

SALINA         SUNNY     57  27  31 SW9       30.21F
6HR MIN TEMP:  23; 6HR MAX TEMP:  57;

TOPEKA BILLARD SUNNY     50  28  42 SW8       30.24F
6HR MIN TEMP:  25; 6HR MAX TEMP:  50;

TOPEKA FORBES  SUNNY     51  29  42 S14       30.23F
6HR MIN TEMP:  25; 6HR MAX TEMP:  51;

$$




USA.gov is the U.S. government's official web portal to all federal, state and local government web resources and services.